RH
53 57 58 62 70 78 93 84 84 82 85 94 88 80 71 71 72 77 73 67 74 76 70 72 74 79 65 64 58 62 69 91 81 55 48 71 75 63 58 61 68 78 72
51 67 74 74 66 70 81 84 81 84 84 89 96 93 88 78 74 75 71 61 68 73 72 72 69 59 79 82 80 80 72 85 85 81 63 53 63 65 67 72 78 64 60
56 63 73 78 81 77 74 73 81 82 78 84 88 96 95 91 77 72 73 70 67 65 70 69 69 72 79 81 86 84 75 79 75 70 64 48 51 52 71 70 72 71 62
61 75 80 72 82 76 77 71 70 69 66 74 81 87 94 88 78 74 72 74 71 64 66 65 63 70 75 81 81 87 87 71 72 66 58 48 46 55 64 72 74 69 60
74 76 78 78 77 70 72 68 64 66 65 66 67 68 82 85 78 74 74 74 78 69 66 62 61 65 73 78 69 88 90 81 60 60 54 49 51 71 63 55 69 51 77
76 76 72 76 81 80 75 72 66 63 62 61 61 60 62 59 82 92 88 81 79 79 78 70 67 76 75 85 90 93 90 88 83 64 65 64 78 70 60 60 66 76 64
73 76 83 79 78 76 72 71 69 71 66 66 66 64 67 65 92 97 95 67 72 80 82 84 77 54 74 63 87 90 94 90 90 88 82 79 82 76 82 85 81 77 68
84 78 84 85 81 74 72 70 72 72 74 78 68 67 68 63 100 100 100 81 83 82 82 82 84 80 76 77 73 70 69 66 73 80 89 86 81 85 82 81 84 83 73
95 90 90 95 94 81 86 85 83 80 82 76 72 74 74 74 100 100 96 72 72 83 83 84 85 87 100 100 77 78 83 87 92 94 97 95 97 100 98 87 86 93 68
97 96 98 99 96 85 88 80 81 84 85 85 78 74 83 79 98 100 89 62 72 76 92 92 100 97 100 100 91 95 86 92 91 86 88 97 97 93 100 93 77 89 87
85 87 90 92 95 90 79 85 76 88 90 92 90 92 91 95 96 100 100 69 82 92 94 99 100 100 100 100 100 97 98 97 90 92 95 95 93 92 88 79 92 81 93
71 71 71 76 72 87 86 90 87 94 93 88 90 89 94 96 100 100 100 97 98 97 95 98 99 100 100 100 98 100 100 99 86 94 95 97 96 94 94 92 88 88 94
72 70 67 72 71 74 76 81 69 90 93 76 88 94 76 75 82 99 100 100 100 90 99 100 100 100 100 96 100 100 100 80 72 86 79 74 90 94 90 90 78 81 91
68 62 60 58 69 69 62 59 48 48 55 49 60 80 55 64 62 59 59 61 93 74 88 84 97 95 92 85 92 94 91 94 90 82 78 65 77 87 79 82 80 72 91
56 51 50 38 46 48 59 62 52 77 75 53 56 50 48 48 64 87 72 50 50 69 74 54 55 58 60 60 60 62 67 75 79 77 77 84 83 86 83 74 89 83 84
51 39 40 34 33 34 38 53 96 94 99 100 100 75 64 91 100 100 100 100 100 99 58 46 46 46 46 47 50 51 52 60 53 56 61 63 66 67 66 65 80 91 95
58 55 36 38 33 35 36 35 50 73 100 100 100 100 100 99 100 100 100 100 100 92 53 41 44 45 44 45 45 46 49 52 70 61 62 61 62 60 63 62 62 62 71
49 74 37 34 32 30 32 32 29 33 40 50 89 89 98 100 100 100 99 95 53 70 45 42 44 44 47 50 49 51 50 67 65 62 63 67 70 75 66 67 66 64 65
36 32 32 30 30 38 31 29 27 31 31 31 49 79 89 100 100 100 99 63 46 38 36 37 43 44 52 52 53 56 61 57 57 59 71 69 64 62 66 66 65 92 89
42 60 48 31 27 28 28 29 30 32 32 30 30 34 47 66 50 56 62 57 42 40 38 38 39 45 57 63 60 58 72 70 60 53 56 53 52 58 62 68 62 64 65
29 32 48 28 27 28 28 32 29 28 27 28 31 34 60 31 30 30 31 32 33 34 35 36 32 35 60 64 59 56 59 59 49 47 43 46 48 60 62 52 50 51 68
39 40 34 28 28 30 30 31 30 29 28 26 25 29 91 35 30 30 29 29 29 33 32 38 38 36 35 38 47 47 43 42 44 54 55 55 47 47 48 57 55 51 54
32 39 42 34 37 40 29 27 29 29 31 30 30 27 24 28 26 26 29 31 30 30 30 33 36 34 38 40 42 48 43 44 45 48 56 55 53 55 57 60 58 66 62
33 37 41 28 29 29 35 40 29 37 30 28 27 30 33 34 30 30 29 46 52 51 56 47 42 39 47 49 46 50 44 50 50 51 62 68 63 62 61 64 56 68 64
48 46 34 28 28 28 28 27 28 26 26 33 38 43 44 52 55 53 48 48 45 49 48 42 58 73 66 69 68 66 58 81 66 75 51 61 62 65 59 66 66 62 62
35 43 33 30 29 28 28 28 28 27 27 32 36 41 46 47 47 46 55 52 46 44 43 39 42 46 48 61 77 95 99 100 88 100 60 57 57 52 48 56 58 62 64
Wind_Speed
11 11 12 11 11 13 12 14 18 16 14 9 9 17 15 17 17 17 17 14 16 14 14 13 13 13 9 9 10 9 8 7 10 10 9 5 6 7 6 7 7 5 6
12 8 10 9 11 12 13 15 16 15 14 15 18 11 10 16 16 18 18 16 16 15 15 15 14 12 14 11 7 11 10 9 9 11 10 7 5 6 7 8 5 6 7
10 13 12 10 11 13 13 11 12 11 14 13 15 20 18 22 17 16 16 16 16 15 15 15 14 12 12 9 10 10 10 9 10 10 10 7 8 6 6 7 7 8 6
13 13 14 13 11 13 13 13 12 12 12 10 10 10 13 20 18 16 14 14 15 15 15 15 14 14 13 12 10 10 9 9 10 10 9 9 8 3 3 5 7 8 8
13 14 14 13 11 10 11 11 9 10 10 7 7 6 7 11 8 12 13 14 14 15 14 14 14 16 15 14 10 9 10 10 10 9 10 8 5 5 8 7 5 7 5
11 12 14 14 8 9 8 7 6 7 5 6 8 9 11 9 10 12 10 11 14 14 13 13 15 9 10 10 13 12 10 10 11 7 9 8 4 7 9 8 7 5 7
11 10 12 11 11 10 9 7 7 8 8 7 8 8 9 9 8 9 7 12 12 13 13 12 12 12 12 14 13 10 9 6 6 7 10 8 2 5 8 8 8 5 7
11 12 12 6 9 9 9 6 6 7 8 7 8 7 8 8 9 6 5 9 11 13 13 12 12 12 10 11 11 13 13 11 11 6 7 9 4 4 7 7 7 6 7
10 13 12 7 6 3 4 1 4 6 7 8 7 9 9 7 9 9 7 7 9 8 7 6 9 6 5 0 9 11 6 6 6 9 8 10 3 5 8 6 7 6 8
12 10 11 7 7 9 5 4 4 5 6 5 5 5 3 8 8 10 8 6 8 7 6 5 1 4 6 7 5 6 7 5 4 4 5 4 8 14 13 9 8 8 7
10 6 7 4 5 6 3 2 3 5 7 8 7 5 4 3 4 7 8 6 3 4 4 5 4 8 11 9 5 3 3 2 3 3 3 5 9 9 8 8 8 10 8
9 9 9 10 10 7 7 5 5 4 7 8 6 6 6 5 7 4 6 2 2 4 3 4 4 8 8 8 6 4 5 3 3 3 3 5 5 5 5 4 6 5 5
8 8 9 7 7 7 6 3 6 6 6 6 4 5 6 6 6 6 8 9 9 6 5 6 8 7 7 6 9 8 4 5 7 7 8 8 7 6 4 3 7 8 6
8 7 6 4 5 6 6 8 8 10 5 3 6 7 9 6 6 6 7 8 7 7 9 7 5 5 6 4 5 5 5 6 7 9 9 9 6 4 5 5 8 8 7
6 6 6 3 4 2 7 7 7 7 6 9 9 10 5 9 5 6 10 7 6 6 4 6 7 7 7 7 7 6 8 7 7 7 6 6 6 6 7 7 6 6 9
8 3 5 4 5 5 3 7 9 8 6 9 9 11 8 11 8 8 8 6 5 7 5 2 3 1 2 2 2 2 4 2 4 5 4 6 6 7 8 7 6 7 7
7 9 3 5 5 5 6 3 7 3 6 7 8 10 10 10 7 6 3 6 7 4 7 1 1 1 2 3 1 1 3 3 3 5 5 5 6 8 7 7 8 8 9
0 5 5 5 6 7 5 5 6 6 3 6 4 5 9 8 7 4 2 6 6 6 7 3 4 3 3 2 3 3 2 1 3 4 4 5 5 7 7 7 9 10 9
5 6 6 4 5 5 6 6 5 5 4 4 7 3 6 7 6 3 2 5 5 6 5 6 2 1 2 3 3 3 4 4 3 5 3 4 5 5 6 7 8 7 9
5 1 5 6 2 4 4 4 6 6 6 5 4 4 5 3 4 7 6 6 5 3 5 3 3 1 2 3 5 4 4 5 5 5 5 5 3 5 6 7 9 8 7
2 4 0 6 5 4 4 6 5 5 6 5 5 3 7 4 6 6 4 3 3 4 5 5 6 3 7 6 7 7 7 9 5 7 5 5 3 5 7 8 8 5 5
6 6 6 7 5 3 6 6 7 4 4 6 7 2 3 6 7 6 6 6 5 4 4 3 4 6 7 5 5 8 10 9 6 5 5 6 8 7 8 6 8 7 8
8 8 9 8 7 6 6 8 6 7 7 8 7 7 6 7 9 9 7 6 6 5 5 5 5 6 5 6 5 8 10 9 8 5 7 8 8 8 7 7 7 6 7
5 6 9 7 3 5 5 6 9 6 5 8 8 9 11 12 11 11 10 8 6 7 6 7 6 7 5 7 7 7 9 9 10 10 11 9 9 10 10 8 9 8 9
2 4 9 9 10 10 9 10 10 10 10 9 9 10 11 10 9 11 13 12 12 9 8 11 6 8 13 13 14 17 13 12 14 7 7 11 13 14 13 10 11 9 12
9 6 8 9 9 10 10 9 10 10 11 8 9 9 10 10 7 8 7 9 10 11 15 12 15 20 21 16 19 20 16 8 9 11 9 10 12 12 13 14 15 8 9
Wind_Direction
253 238 256 254 250 243 233 236 238 239 238 213 254 263 219 216 218 221 217 218 206 218 231 230 222 230 235 229 228 237 232 221 245 255 261 208 176 227 272 271 262 249 234
266 284 228 239 248 247 244 236 243 241 231 215 204 243 275 256 225 224 221 221 216 220 220 230 225 221 224 237 238 236 231 223 232 242 261 266 227 217 229 248 256 279 285
254 257 253 236 234 243 249 247 244 242 246 233 224 177 210 240 237 223 223 224 231 217 222 224 225 225 235 224 223 234 223 220 221 234 244 241 238 197 205 229 247 238 255
295 269 258 252 226 233 242 242 245 257 263 237 234 233 197 232 223 227 224 225 227 228 223 221 220 220 226 222 225 223 238 233 217 233 234 237 231 229 273 260 228 226 237
285 275 264 266 259 241 228 229 233 236 247 255 270 257 238 239 247 230 230 232 230 232 238 222 218 228 210 210 215 213 217 222 236 214 230 223 208 222 244 247 266 260 196
299 292 279 252 205 208 186 181 203 233 238 256 253 253 243 227 208 208 218 238 240 234 232 229 236 204 217 191 202 221 215 220 248 221 234 244 189 228 248 252 238 250 254
324 323 305 223 197 190 198 198 209 209 224 225 242 239 253 251 156 174 193 236 241 238 234 235 231 225 219 218 216 229 228 227 238 226 240 256 342 220 258 260 270 270 256
341 345 344 285 224 196 186 192 216 217 210 220 226 230 239 242 154 156 147 237 246 244 240 232 230 235 221 218 224 213 221 221 221 218 229 257 255 257 262 258 258 264 269
349 353 339 304 339 192 241 205 215 234 226 224 232 237 239 234 156 160 189 232 254 250 245 250 233 211 122 346 218 216 213 228 216 225 248 279 302 215 240 240 249 236 253
351 326 314 351 246 207 200 191 194 216 225 227 217 230 262 260 179 163 192 238 235 238 229 156 223 109 148 207 212 200 218 239 266 281 263 268 263 256 226 228 240 248 245
290 272 292 329 334 2 38 113 106 97 99 104 89 78 78 3 69 174 194 237 229 244 190 145 135 159 165 172 180 176 197 28 347 260 246 263 245 238 252 218 225 241 245
331 339 356 353 14 23 32 50 64 109 97 99 97 74 49 51 21 92 156 167 339 207 145 154 150 189 190 196 203 220 247 256 258 268 266 241 236 244 261 259 242 237 252
333 349 355 5 12 352 2 26 121 127 117 124 127 121 118 126 94 88 86 83 49 91 68 82 125 149 161 187 225 226 220 230 243 245 252 248 244 243 197 236 272 264 227
345 352 352 17 347 4 335 8 43 27 6 129 145 137 134 124 127 146 138 129 125 132 146 142 174 210 229 197 171 194 214 222 240 265 280 275 287 241 254 235 251 258 254
334 336 322 53 33 95 65 36 52 59 25 24 9 48 25 90 69 39 37 43 35 41 306 167 183 198 198 200 199 214 202 193 208 225 243 264 268 265 268 268 283 283 261
317 31 357 341 51 59 93 113 64 77 69 59 44 38 63 82 98 71 60 50 33 9 254 220 153 169 217 144 206 250 279 282 287 304 308 297 287 265 266 267 269 276 270
341 336 357 2 26 31 26 25 151 140 75 73 89 74 63 118 109 89 33 331 290 319 244 197 241 257 283 215 221 2 326 0 336 277 284 286 286 291 289 280 288 285 274
265 253 323 20 7 6 22 0 351 11 139 146 97 71 118 129 131 140 297 299 257 207 257 177 334 311 27 339 321 308 281 289 309 303 286 292 314 315 294 292 301 289 280
4 26 349 25 38 337 349 354 10 17 6 345 133 153 140 157 160 156 322 285 293 304 334 321 139 285 326 291 298 300 299 302 319 300 286 302 311 306 298 301 297 292 305
140 62 283 322 5 21 2 350 352 338 329 338 323 92 144 187 229 211 208 226 270 268 274 298 276 180 195 277 276 279 280 248 252 252 247 247 263 303 292 308 313 308 299
299 155 269 277 27 5 355 351 325 313 307 319 312 337 97 296 289 292 298 276 294 327 329 343 319 8 163 208 261 250 226 242 222 278 297 307 318 287 270 260 261 283 295
10 347 323 333 334 323 15 315 295 329 323 327 320 323 173 244 277 255 270 272 264 234 250 252 270 300 329 317 299 288 286 285 264 295 332 295 297 302 306 315 295 306 292
350 348 340 354 342 326 333 317 347 330 341 328 312 305 284 259 284 296 291 295 292 277 274 237 249 267 239 260 264 290 285 283 280 277 267 274 281 281 284 278 285 289 291
305 314 279 298 31 321 340 309 298 307 304 299 323 346 353 348 330 320 323 22 8 359 348 320 286 245 262 230 235 238 243 254 265 262 258 267 270 279 274 279 291 288 284
332 322 332 333 341 335 338 334 334 330 325 31 3 4 353 350 5 355 357 357 355 340 349 339 335 348 338 345 343 350 297 204 228 258 260 265 262 270 279 278 272 273 278
349 11 334 342 346 347 331 334 322 318 325 5 346 331 336 327 334 337 335 345 346 340 332 332 335 333 336 22 10 351 355 289 240 233 245 260 267 272 273 272 272 269 266